Weather in Bystrovka

Russia / Novosibirsk Oblast     54°32′09″N   82°35′03″E
temp.,
°C
wind,
m/s
gust,
m/s
humid.,
%
clouds,
%
prec.,
mm/h
press.,
hPa
HPBL,
m
19 september, sun
sun1901:00+9sw5758100 0.0 1010868
04:00+8ssw61062100 0.0 1010424
07:00+6ssw71371100 0.0 1009371
10:00+9s81458100 0.0 1007641
13:00+14ssw8124495 0.0 10041182
16:00+14wsw91344100 0.0 10031402
19:00+10w812595 0.0 10041211
22:00+9w7106999 0.1 10061100
20 september, mon
mon2001:00+7wsw61073100 0.4 1007548
04:00+6sw697364 0.1 1008646
07:00+5sw8128192 0.1 1010860
10:00+5sw10137499 0.0 10101210
13:00+6sw101376100 0.4 10111293
16:00+6wsw101376100 1.3 10111367
19:00+5wsw81183100 2.0 10121047
22:00+4wsw71084100 0.3 1012767
21 september, tue
tue2101:00+3wsw699399 0.5 1012767
04:00+3w7979100 0.2 1013985
07:00+3wsw6980100 0.3 1014756
10:00+3wsw81297100 0.3 1014699
13:00+4w81197100 2.5 1015769
16:00+4w71095100 1.1 1017724
19:00+5wnw6982100 1.3 1019710
22:00+4w5875100 0.1 1019632
22 september, wed
wed2201:00+4w4777100 0.3 1020451
04:00+3w5786100 0.3 1020392
07:00+2wsw5793100 0.3 1020452
10:00+3wsw5786100 0.1 1021702
13:00+3wsw578988 0.4 1021679
16:00+5wsw677489 0.3 10201017
19:00+4wsw5779100 0.6 1020763
22:00+3wsw5885100 0.3 1021575
23 september, thu
thu2301:00+3wsw588399 0.4 1020488
04:00+2sw5786100 0.0 1020503
07:00+2ssw6998100 0.3 1020382
10:00+2sw5799100 1.0 1020357
13:00+2wsw3499100 2.4 1021298
16:00+3w2398100 0.9 1021347
19:00+3nnw3497100 1.8 1023405
22:00+3nnw5698100 0.6 1024472